Regional Weather Roundup
Issued by NWS

Home | Current Version | Previous Version | Text Only | Print | Product List | Glossary Off
Versions: 1 2 3 4 5 6 7 8 9 10 11 12 13 14 15 16 17 18 19 20 21 22 23 24 25 26 27 28 29 30 31 32 33 34 35 36 37 38 39 40 41 42 43 44 45 46 47 48 49 50

000
ASUS43 KIND 222109
RWRIN

WEATHER ROUNDUP FOR INDIANA
NATIONAL WEATHER SERVICE INDIANAPOLIS IN
500 PM EDT TUE AUG 22 2017

NOTE: "FAIR" INDICATES FEW OR NO CLOUDS BELOW 12,000 FEET WITH NO
SIGNIFICANT WEATHER AND/OR OBSTRUCTIONS TO VISIBILITY.

* - STATION DOES NOT REPORT WEATHER SUCH AS PRECIPITATION OR FOG.

+ - STATION NOT QUALITY CONTROLLED BY THE NATIONAL WEATHER SERVICE.
    USE DATA WITH CAUTION...ESPECIALLY DEWPOINT AND RELATIVE
    HUMIDITY OBSERVATIONS.

INZ001>003-010>013-019-020-222200-
NORTHWEST INDIANA

CITY           SKY/WX    TMP DP  RH WIND       PRES   REMARKS
GARY /AIRPORT/ MOSUNNY   81  50  34 W20       29.90S
KNOX *+        MOSUNNY   73  64  73 NW10G16   29.89S
LA PORTE +     PTSUNNY   76  61  61 NW7G17    29.91S
MICHIGAN CITY+ MOSUNNY   77  61  57 NW10      29.90S
MONTICELLO +   MOSUNNY   78  65  64 NW16      29.90R
RENSSELAER +   MOSUNNY   75  59  57 W16G23    29.91S
VALPARAISO     PTSUNNY   79  62  56 NW8G18    29.90S

$$

LMZ046-743>745-222200-
SOUTHERN LAKE MICHIGAN

STATION/POSITION TIME  TEMP    WIND        PRES    WAVE
                       AIR SEA DIR/SP/G            HT
                 (UTC) (F)     (DEG/KT/KT) (MB)    (FT)
BURNS HARBOR     2040   75     340/  6/  8 1012.9S
MICHIGAN CITY    2040   74     260/  9/ 10   N/A
5NW MICH CITY    2100   74 74  310/  8/ 10   N/A     3

$$

INZ004-005-014>016-021>024-222200-
NORTH CENTRAL INDIANA

CITY           SKY/WX    TMP DP  RH WIND       PRES   REMARKS
ELKHART        PTSUNNY   75  61  60 NW12G17   29.88S
GOSHEN         MOSUNNY   77  59  53 NW17      29.88R
LOGANSPORT +   MOSUNNY   77  66  69 W15G21    29.90S
PERU/GRISSOM   MOSUNNY   80  66  64 W18       29.87F
ROCHESTER +    MOSUNNY  N/A N/A N/A NW14      29.88S
SOUTH BEND     PTSUNNY   77  63  61 NW14G23   29.89S
WARSAW +       PTSUNNY   73  64  73 NW9G21    29.88R

$$

INZ006>009-017-018-025>027-222200-
NORTHEAST INDIANA

CITY           SKY/WX    TMP DP  RH WIND       PRES   REMARKS
AUBURN +       MOSUNNY   77  63  61 NW13G22   29.86S
FORT WAYNE     MOSUNNY   77  66  68 W14       29.85F
HUNTINGTON +   CLOUDY    78  68  71 W14       29.86F

$$

INZ028-029-035-036-043>045-051>053-222200-
WEST CENTRAL INDIANA

CITY           SKY/WX    TMP DP  RH WIND       PRES   REMARKS
GREENCASTLE +  PTSUNNY   79  64  61 W7        29.93S
LAFAYETTE      MOSUNNY   78  67  68 NW15G25   29.90S
TERRE HAUTE    PTSUNNY   80  66  62 NW9       29.93S

$$

INZ030>032-037>040-046>048-054>057-064-065-222200-
CENTRAL INDIANA

CITY           SKY/WX    TMP DP  RH WIND       PRES   REMARKS
CP ATTERBURY + MOSUNNY   81  68  65 W9        29.92S
COLUMBUS       PTSUNNY   77  68  73 NW9       29.92S
FRANKFORT +    CLOUDY    79  68  69 NW12G17   29.93S
GREENWOOD *+   MOSUNNY  N/A N/A N/A W14G21    29.92S
INDIANAPOLIS   PTSUNNY   80  66  62 W14G20    29.91S
-EAGLE CREEK   PTSUNNY   79  66  64 W13       29.90F
KOKOMO +       MOSUNNY   78  68  71 W16G22    29.89F
MARION +       CLOUDY    75  66  73 W15       29.89F
MT COMFORT *+  MOSUNNY   79  68  69 W14G23    29.91S
SHELBYVILLE    MOSUNNY   82  66  58 W14       29.90F
ZIONSVILLE +   PTSUNNY   77  66  68 NW12      29.92S

$$

INZ033-034-041-042-049-050-058-059-222200-
EAST CENTRAL INDIANA

CITY           SKY/WX    TMP DP  RH WIND       PRES   REMARKS
MUNCIE         PTSUNNY   80  67  64 W12       29.89S
RICHMOND +     MOSUNNY   77  68  73 W13       29.92S

$$

INZ060-061-067>069-081>083-085>088-222200-
SOUTHWEST INDIANA

CITY           SKY/WX    TMP DP  RH WIND       PRES   REMARKS
EVANSVILLE     CLOUDY    76  72  87 CALM      29.96R
HUNTINGBURG +  CLOUDY    75  71  87 CALM      29.96R
WASHINGTON +   MOSUNNY   81  66  61 MISG      29.93R

$$

INZ062-063-066-070>080-084-089>092-222200-
SOUTH CENTRAL AND SOUTHEAST INDIANA

CITY           SKY/WX    TMP DP  RH WIND       PRES   REMARKS
BEDFORD +      MOSUNNY   81  68  65 W9        29.93R
BLOOMINGTON    CLOUDY    81  66  60 NW8       29.93R
MADISON *+     CLOUDY    72  70  94 CALM      29.95F
NORTH VERNON + CLOUDY    75  68  78 W7        29.93F
SEYMOUR +      CLOUDY    81  70  69 W8        29.93R

$$





USA.gov is the U.S. government's official web portal to all federal, state and local government web resources and services.